STARLINK-1583, 46064

Orbit data source: Space-Track

STARLINK-1583, 46064 is a payload satellite owned by SpaceX/Seattle (US) in LEO that was launched on Fri, 07 Aug 2020 UTC via an FALCON 9 launch vehicle from the Air Force Eastern Test Range (AFETR). Payloads include a variety of satellites, spacecraft, and rockets equipped with specific instruments for various scientific and technological missions. These include communications satellites like Starlink; space stations such as the ISS; scientific satellites like the Hubble; Earth observation satellites from companies like Planet Labs, Umbra, and HawkEye 360; GPS; miniature CubeSats for education and research; and military/defense satellites.

Loading next visibility...
STARLINK-1583 details
Identifier
46064, 2020-055AP
Orbit
LEO
Last TLE update19 hours ago
Origin
Flag of USSpaceX/Seattle (US)
ManufacturerSpaceX/Seattle
MissionOperational Commercial Communications
Bus & MotorSTARLINK, Unknown motor
Mass260 kg wet, ~248 kg dry
Launch date (UTC)
2020-08-07 (4 years ago)
Launch vehicle
FALCON 9
Launch site
Air Force Eastern Test Range (AFETR)
Object type
Payload
Rocket body
Debris
Shape & HBRBox + 1 Pan, 8.86 m
Radar Cross Section13.562 m², Large (>1 m²)

Expand to show TLE details & history

TLE from 19 hours ago
0 STARLINK-1583
1 46064U 20055AP  25018.17704110 -.00000554  00000-0 -18282-4 0  9990
2 46064  53.0545 181.9270 0001339  87.5213 272.5929 15.06395780246400
Epoch: 2025-01-18T04:14Z
Definitive object data (Epoch: 2025-01-18T04:14:56.351Z)
Latitude-0.00002°
Longitude0.36212°
Altitude548.062 km
Speed7.589 km/s
True Right ascension12h 07m 42s
True Declination0° 00' 00"
Sunlit
Object was in full shadow at TLE epoch
Visualization TLE readout
Latitude-52.22761°
Longitude-77.98977°
Altitude566.267 km
Speed7.577 km/s
Apparent Right ascension09h 36m 17s
Apparent Declination-52° 37' 57"
Sunlit
Object is in daylight
Visualization observer readout
Local Sidereal Time23:53:53
Azimuth130.05° SE
Elevation-63.388°
Doppler factor1
Orbital elements
Apogee altitude548.423 km
Perigee altitude546.568 km
Semi-major axis6,925.632 km
Eccentricity0.0001339
Inclination53.0545°
RAAN181.927°
Arg. of periapsis87.5213°
True anomaly272.57757°
Mean anomaly272.5929°
Eccentric anomaly272.58524°
Mean motion3.76577 °/min
BSTAR-0.000018282
Orbital period95.6 mins
Loading maneuver chart data...
Loading historical data...
Loading historical data...
Loading historical data...
Loading historical data...
Loading historical data...
Loading historical data...
Loading historical data...

STARLINK-1583 Visibility forecast

Observer location: undefined°, undefined

Span
Click to sort rows by Start time (UTC) header in descending order
Start Az.
Max El. time (UTC)
Max El. Az.
Max El.
End time (UTC)
End Az.
5 mins2025-01-19 12:14:57.497Z176.539° S2025-01-19 12:17:57.497Z119° SE21.857°2025-01-19 12:19:57.497Z83.69° E
6 mins2025-01-19 13:53:57.497Z255.804° W2025-01-19 13:56:57.497Z332.793° NNW36.575°2025-01-19 13:59:57.497Z37.357° NE
5 mins2025-01-19 18:56:57.497Z347.182° N2025-01-19 18:58:57.497Z37.989° NE26.529°2025-01-19 19:01:57.497Z89.089° E
6 mins2025-01-19 20:35:57.497Z288.654° WNW2025-01-19 20:37:57.497Z240.298° WSW35.102°2025-01-19 20:41:57.497Z153.647° SSE
|